Location: ??????
(56.0120°N, 39.1740°E)
Time: 21:36:38
(UTC+00:00)

SL-16 R/B - Pass Details

Date: 14 April 2026
Orbit: 841 x 845 km, 71.0° (Epoch: 16 May)

Event Time Altitude Azimuth Distance (km) Brightness Sun altitude
Rises 23:30:44 0° 324° (NW) 3,416 5.6 -19.2°
Reaches altitude 10° 23:33:13 10° 328° (NNW) 2,478 4.9 -19.0°
Maximum altitude 23:38:52 61° 49° (NE) 958 2.7 -18.5°
Drops below altitude 10° 23:44:28 10° 130° (SE) 2,466 4.6 -18.1°
Sets 23:46:57 0° 134° (SE) 3,398 5.3 -17.9°
